Location: Ladrillo (historical)
(32.8195°N, 117.2231°W)
Time: 19:12:13
(UTC+00:00)

NOAA 18 - Pass Details

Date: 27 April 2021
Orbit: 840 x 861 km, 99.0° (Epoch: 05 May)

Event Time Altitude Azimuth Distance (km) Brightness Sun altitude
Exits shadow 04:07:41 22° 72° (ENE) 1,747 6.5 -19.9°
Maximum altitude 04:08:00 22° 67° (ENE) 1,741 6.5 -20.0°
Drops below altitude 10° 04:12:07 10° 18° (NNE) 2,460 7.8 -20.7°
Sets 04:14:56 0° 4° (N) 3,398 8.8 -21.2°
